﻿測定場所 (Monitoring sites),日付 (Measurement date),時間 (Measurement time),線量率 最大値 (max) μGy/h,線量率 最小値 (min) μGy/h,線量率 平均値 (average) μGy/h,
新宿 (Shinjuku),2018-03-25,23:01～24:00,0.0403,0.0347,0.0368,
新宿 (Shinjuku),2018-03-25,22:01～23:00,0.0400,0.0342,0.0366,
新宿 (Shinjuku),2018-03-25,21:01～22:00,0.0391,0.0345,0.0366,
新宿 (Shinjuku),2018-03-25,20:01～21:00,0.0410,0.0344,0.0369,
新宿 (Shinjuku),2018-03-25,19:01～20:00,0.0391,0.0343,0.0364,
新宿 (Shinjuku),2018-03-25,18:01～19:00,0.0405,0.0341,0.0367,
新宿 (Shinjuku),2018-03-25,17:01～18:00,0.0399,0.0349,0.0366,
新宿 (Shinjuku),2018-03-25,16:01～17:00,0.0391,0.0346,0.0370,
新宿 (Shinjuku),2018-03-25,15:01～16:00,0.0402,0.0345,0.0368,
新宿 (Shinjuku),2018-03-25,14:01～15:00,0.0402,0.0345,0.0369,
新宿 (Shinjuku),2018-03-25,13:01～14:00,0.0419,0.0350,0.0374,
新宿 (Shinjuku),2018-03-25,12:01～13:00,0.0410,0.0356,0.0371,
新宿 (Shinjuku),2018-03-25,11:01～12:00,0.0405,0.0348,0.0371,
新宿 (Shinjuku),2018-03-25,10:01～11:00,0.0409,0.0345,0.0369,
新宿 (Shinjuku),2018-03-25,09:01～10:00,0.0407,0.0354,0.0371,
新宿 (Shinjuku),2018-03-25,08:01～09:00,0.0415,0.0345,0.0370,
新宿 (Shinjuku),2018-03-25,07:01～08:00,0.0398,0.0341,0.0369,
新宿 (Shinjuku),2018-03-25,06:01～07:00,0.0403,0.0348,0.0367,
新宿 (Shinjuku),2018-03-25,05:01～06:00,0.0412,0.0345,0.0367,
新宿 (Shinjuku),2018-03-25,04:01～05:00,0.0384,0.0340,0.0363,
新宿 (Shinjuku),2018-03-25,03:01～04:00,0.0397,0.0344,0.0365,
新宿 (Shinjuku),2018-03-25,02:01～03:00,0.0395,0.0347,0.0367,
新宿 (Shinjuku),2018-03-25,01:01～02:00,0.0389,0.0345,0.0365,
新宿 (Shinjuku),2018-03-25,00:01～01:00,0.0384,0.0343,0.0362,
新宿 (Shinjuku),2018-03-24,23:01～24:00,0.0401,0.0341,0.0361,
新宿 (Shinjuku),2018-03-24,22:01～23:00,0.0389,0.0339,0.0361,
新宿 (Shinjuku),2018-03-24,21:01～22:00,0.0399,0.0346,0.0365,
新宿 (Shinjuku),2018-03-24,20:01～21:00,0.0383,0.0341,0.0362,
新宿 (Shinjuku),2018-03-24,19:01～20:00,0.0400,0.0336,0.0362,
新宿 (Shinjuku),2018-03-24,18:01～19:00,0.0392,0.0348,0.0365,
新宿 (Shinjuku),2018-03-24,17:01～18:00,0.0402,0.0344,0.0363,
新宿 (Shinjuku),2018-03-24,16:01～17:00,0.0404,0.0334,0.0364,
新宿 (Shinjuku),2018-03-24,15:01～16:00,0.0397,0.0347,0.0363,
新宿 (Shinjuku),2018-03-24,14:01～15:00,0.0405,0.0348,0.0368,
新宿 (Shinjuku),2018-03-24,13:01～14:00,0.0403,0.0342,0.0365,
新宿 (Shinjuku),2018-03-24,12:01～13:00,0.0392,0.0338,0.0365,
新宿 (Shinjuku),2018-03-24,11:01～12:00,0.0393,0.0348,0.0364,
新宿 (Shinjuku),2018-03-24,10:01～11:00,0.0390,0.0345,0.0364,
新宿 (Shinjuku),2018-03-24,09:01～10:00,0.0401,0.0347,0.0366,
新宿 (Shinjuku),2018-03-24,08:01～09:00,0.0388,0.0351,0.0365,
新宿 (Shinjuku),2018-03-24,07:01～08:00,0.0399,0.0344,0.0363,
新宿 (Shinjuku),2018-03-24,06:01～07:00,0.0402,0.0351,0.0364,
新宿 (Shinjuku),2018-03-24,05:01～06:00,0.0389,0.0343,0.0362,
新宿 (Shinjuku),2018-03-24,04:01～05:00,0.0387,0.0336,0.0363,
新宿 (Shinjuku),2018-03-24,03:01～04:00,0.0390,0.0347,0.0364,
新宿 (Shinjuku),2018-03-24,02:01～03:00,0.0406,0.0337,0.0364,
新宿 (Shinjuku),2018-03-24,01:01～02:00,0.0399,0.0348,0.0366,
新宿 (Shinjuku),2018-03-24,00:01～01:00,0.0414,0.0355,0.0378,
新宿 (Shinjuku),2018-03-23,23:01～24:00,0.0450,0.0364,0.0393,
新宿 (Shinjuku),2018-03-23,22:01～23:00,0.0452,0.0368,0.0403,
新宿 (Shinjuku),2018-03-23,21:01～22:00,0.0429,0.0352,0.0382,
新宿 (Shinjuku),2018-03-23,20:01～21:00,0.0394,0.0344,0.0365,
新宿 (Shinjuku),2018-03-23,19:01～20:00,0.0400,0.0349,0.0366,
新宿 (Shinjuku),2018-03-23,18:01～19:00,0.0405,0.0340,0.0364,
新宿 (Shinjuku),2018-03-23,17:01～18:00,0.0408,0.0339,0.0366,
新宿 (Shinjuku),2018-03-23,16:01～17:00,0.0395,0.0350,0.0364,
新宿 (Shinjuku),2018-03-23,15:01～16:00,0.0398,0.0341,0.0366,
新宿 (Shinjuku),2018-03-23,14:01～15:00,0.0401,0.0336,0.0367,
新宿 (Shinjuku),2018-03-23,13:01～14:00,0.0393,0.0342,0.0367,
新宿 (Shinjuku),2018-03-23,12:01～13:00,0.0382,0.0337,0.0363,
新宿 (Shinjuku),2018-03-23,11:01～12:00,0.0411,0.0338,0.0366,
新宿 (Shinjuku),2018-03-23,10:01～11:00,0.0402,0.0346,0.0363,
新宿 (Shinjuku),2018-03-23,09:01～10:00,0.0395,0.0348,0.0366,
新宿 (Shinjuku),2018-03-23,08:01～09:00,0.0393,0.0342,0.0366,
新宿 (Shinjuku),2018-03-23,07:01～08:00,0.0405,0.0343,0.0365,
新宿 (Shinjuku),2018-03-23,06:01～07:00,0.0401,0.0339,0.0366,
新宿 (Shinjuku),2018-03-23,05:01～06:00,0.0392,0.0335,0.0366,
新宿 (Shinjuku),2018-03-23,04:01～05:00,0.0392,0.0348,0.0365,
新宿 (Shinjuku),2018-03-23,03:01～04:00,0.0412,0.0344,0.0367,
新宿 (Shinjuku),2018-03-23,02:01～03:00,0.0391,0.0343,0.0365,
新宿 (Shinjuku),2018-03-23,01:01～02:00,0.0400,0.0338,0.0367,
新宿 (Shinjuku),2018-03-23,00:01～01:00,0.0395,0.0345,0.0368,
新宿 (Shinjuku),2018-03-22,23:01～24:00,0.0394,0.0342,0.0365,
新宿 (Shinjuku),2018-03-22,22:01～23:00,0.0396,0.0344,0.0367,
新宿 (Shinjuku),2018-03-22,21:01～22:00,0.0403,0.0340,0.0367,
新宿 (Shinjuku),2018-03-22,20:01～21:00,0.0394,0.0352,0.0368,
新宿 (Shinjuku),2018-03-22,19:01～20:00,0.0399,0.0342,0.0367,
新宿 (Shinjuku),2018-03-22,18:01～19:00,0.0398,0.0342,0.0367,
新宿 (Shinjuku),2018-03-22,17:01～18:00,0.0397,0.0345,0.0367,
新宿 (Shinjuku),2018-03-22,16:01～17:00,0.0397,0.0349,0.0365,
新宿 (Shinjuku),2018-03-22,15:01～16:00,0.0389,0.0351,0.0366,
新宿 (Shinjuku),2018-03-22,14:01～15:00,0.0387,0.0348,0.0366,
新宿 (Shinjuku),2018-03-22,13:01～14:00,0.0407,0.0351,0.0369,
新宿 (Shinjuku),2018-03-22,12:01～13:00,0.0407,0.0354,0.0373,
新宿 (Shinjuku),2018-03-22,11:01～12:00,0.0411,0.0354,0.0376,
新宿 (Shinjuku),2018-03-22,10:01～11:00,0.0424,0.0361,0.0378,
新宿 (Shinjuku),2018-03-22,09:01～10:00,0.0421,0.0354,0.0380,
新宿 (Shinjuku),2018-03-22,08:01～09:00,0.0400,0.0341,0.0365,
新宿 (Shinjuku),2018-03-22,07:01～08:00,0.0400,0.0350,0.0375,
新宿 (Shinjuku),2018-03-22,06:01～07:00,0.0450,0.0369,0.0408,
新宿 (Shinjuku),2018-03-22,05:01～06:00,0.0538,0.0420,0.0467,
新宿 (Shinjuku),2018-03-22,04:01～05:00,0.0544,0.0481,0.0512,
新宿 (Shinjuku),2018-03-22,03:01～04:00,0.0547,0.0461,0.0508,
新宿 (Shinjuku),2018-03-22,02:01～03:00,0.0549,0.0470,0.0505,
新宿 (Shinjuku),2018-03-22,01:01～02:00,0.0534,0.0439,0.0486,
新宿 (Shinjuku),2018-03-22,00:01～01:00,0.0542,0.0468,0.0500,
新宿 (Shinjuku),2018-03-21,23:01～24:00,0.0558,0.0484,0.0516,
新宿 (Shinjuku),2018-03-21,22:01～23:00,0.0552,0.0435,0.0482,
新宿 (Shinjuku),2018-03-21,21:01～22:00,0.0541,0.0438,0.0487,
新宿 (Shinjuku),2018-03-21,20:01～21:00,0.0548,0.0485,0.0512,
新宿 (Shinjuku),2018-03-21,19:01～20:00,0.0550,0.0467,0.0504,
新宿 (Shinjuku),2018-03-21,18:01～19:00,0.0527,0.0429,0.0475,
新宿 (Shinjuku),2018-03-21,17:01～18:00,0.0495,0.0416,0.0452,
新宿 (Shinjuku),2018-03-21,16:01～17:00,0.0498,0.0419,0.0461,
新宿 (Shinjuku),2018-03-21,15:01～16:00,0.0509,0.0433,0.0465,
新宿 (Shinjuku),2018-03-21,14:01～15:00,0.0559,0.0451,0.0491,
新宿 (Shinjuku),2018-03-21,13:01～14:00,0.0584,0.0459,0.0534,
新宿 (Shinjuku),2018-03-21,12:01～13:00,0.0600,0.0505,0.0561,
新宿 (Shinjuku),2018-03-21,11:01～12:00,0.0572,0.0490,0.0537,
新宿 (Shinjuku),2018-03-21,10:01～11:00,0.0527,0.0425,0.0484,
新宿 (Shinjuku),2018-03-21,09:01～10:00,0.0497,0.0415,0.0459,
新宿 (Shinjuku),2018-03-21,08:01～09:00,0.0470,0.0405,0.0437,
新宿 (Shinjuku),2018-03-21,07:01～08:00,0.0457,0.0360,0.0397,
新宿 (Shinjuku),2018-03-21,06:01～07:00,0.0410,0.0343,0.0370,
新宿 (Shinjuku),2018-03-21,05:01～06:00,0.0385,0.0343,0.0364,
新宿 (Shinjuku),2018-03-21,04:01～05:00,0.0405,0.0335,0.0365,
新宿 (Shinjuku),2018-03-21,03:01～04:00,0.0387,0.0340,0.0364,
新宿 (Shinjuku),2018-03-21,02:01～03:00,0.0379,0.0349,0.0364,
新宿 (Shinjuku),2018-03-21,01:01～02:00,0.0393,0.0344,0.0364,
新宿 (Shinjuku),2018-03-21,00:01～01:00,0.0391,0.0342,0.0363,
新宿 (Shinjuku),2018-03-20,23:01～24:00,0.0391,0.0343,0.0363,
新宿 (Shinjuku),2018-03-20,22:01～23:00,0.0413,0.0342,0.0364,
新宿 (Shinjuku),2018-03-20,21:01～22:00,0.0389,0.0346,0.0363,
新宿 (Shinjuku),2018-03-20,20:01～21:00,0.0392,0.0341,0.0363,
新宿 (Shinjuku),2018-03-20,19:01～20:00,0.0389,0.0340,0.0363,
新宿 (Shinjuku),2018-03-20,18:01～19:00,0.0380,0.0338,0.0361,
新宿 (Shinjuku),2018-03-20,17:01～18:00,0.0402,0.0344,0.0364,
新宿 (Shinjuku),2018-03-20,16:01～17:00,0.0387,0.0341,0.0362,
新宿 (Shinjuku),2018-03-20,15:01～16:00,0.0423,0.0349,0.0373,
新宿 (Shinjuku),2018-03-20,14:01～15:00,0.0439,0.0366,0.0400,
新宿 (Shinjuku),2018-03-20,13:01～14:00,0.0457,0.0372,0.0416,
新宿 (Shinjuku),2018-03-20,12:01～13:00,0.0476,0.0396,0.0427,
新宿 (Shinjuku),2018-03-20,11:01～12:00,0.0453,0.0383,0.0419,
新宿 (Shinjuku),2018-03-20,10:01～11:00,0.0478,0.0397,0.0429,
新宿 (Shinjuku),2018-03-20,09:01～10:00,0.0474,0.0403,0.0438,
新宿 (Shinjuku),2018-03-20,08:01～09:00,0.0445,0.0369,0.0409,
新宿 (Shinjuku),2018-03-20,07:01～08:00,0.0473,0.0367,0.0413,
新宿 (Shinjuku),2018-03-20,06:01～07:00,0.0468,0.0402,0.0434,
新宿 (Shinjuku),2018-03-20,05:01～06:00,0.0461,0.0388,0.0421,
新宿 (Shinjuku),2018-03-20,04:01～05:00,0.0495,0.0397,0.0446,
新宿 (Shinjuku),2018-03-20,03:01～04:00,0.0527,0.0450,0.0483,
新宿 (Shinjuku),2018-03-20,02:01～03:00,0.0508,0.0414,0.0459,
新宿 (Shinjuku),2018-03-20,01:01～02:00,0.0470,0.0395,0.0429,
新宿 (Shinjuku),2018-03-20,00:01～01:00,0.0455,0.0382,0.0420,
新宿 (Shinjuku),2018-03-19,23:01～24:00,0.0459,0.0378,0.0424,
新宿 (Shinjuku),2018-03-19,22:01～23:00,0.0482,0.0409,0.0443,
新宿 (Shinjuku),2018-03-19,21:01～22:00,0.0477,0.0404,0.0441,
新宿 (Shinjuku),2018-03-19,20:01～21:00,0.0469,0.0393,0.0430,
新宿 (Shinjuku),2018-03-19,19:01～20:00,0.0446,0.0357,0.0398,
新宿 (Shinjuku),2018-03-19,18:01～19:00,0.0414,0.0351,0.0373,
新宿 (Shinjuku),2018-03-19,17:01～18:00,0.0407,0.0356,0.0374,
新宿 (Shinjuku),2018-03-19,16:01～17:00,0.0397,0.0339,0.0368,
新宿 (Shinjuku),2018-03-19,15:01～16:00,0.0389,0.0345,0.0365,
新宿 (Shinjuku),2018-03-19,14:01～15:00,0.0404,0.0351,0.0371,
新宿 (Shinjuku),2018-03-19,13:01～14:00,0.0412,0.0357,0.0375,
新宿 (Shinjuku),2018-03-19,12:01～13:00,0.0422,0.0358,0.0380,
新宿 (Shinjuku),2018-03-19,11:01～12:00,0.0403,0.0348,0.0379,
新宿 (Shinjuku),2018-03-19,10:01～11:00,0.0412,0.0356,0.0377,
新宿 (Shinjuku),2018-03-19,09:01～10:00,0.0396,0.0353,0.0373,
新宿 (Shinjuku),2018-03-19,08:01～09:00,0.0416,0.0358,0.0373,
新宿 (Shinjuku),2018-03-19,07:01～08:00,0.0402,0.0350,0.0373,
新宿 (Shinjuku),2018-03-19,06:01～07:00,0.0408,0.0351,0.0372,
新宿 (Shinjuku),2018-03-19,05:01～06:00,0.0411,0.0352,0.0371,
新宿 (Shinjuku),2018-03-19,04:01～05:00,0.0407,0.0346,0.0369,
新宿 (Shinjuku),2018-03-19,03:01～04:00,0.0406,0.0341,0.0367,
新宿 (Shinjuku),2018-03-19,02:01～03:00,0.0413,0.0350,0.0369,
新宿 (Shinjuku),2018-03-19,01:01～02:00,0.0398,0.0353,0.0375,
新宿 (Shinjuku),2018-03-19,00:01～01:00,0.0426,0.0356,0.0374,
